Hourly Data Report for October 01, 2013

All times are specified in Local Standard Time (LST). Add 1 hour to adjust for Daylight Saving Time where and when it is observed.

PENTICTON A
BRITISH COLUMBIA

49°27'45.000" N
119°36'08.000" W
344.40 m
1126146
71889
YYF

Download Data

Hourly Data (October 2013)
Hourly Data Report for October 1, 2013
Temp Definition
°C
Dew Point Temp Definition
°C
Rel Hum Definition
%
Wind Dir Definition
10's deg

Wind Spd Definition
km/h
Visibility Definition
km
Stn Press Definition
kPa
Hmdx Definition


Wind Chill Definition


Weather Definition


TIME
00:00 Legend Double Dagger 10.3 2.9 60 21 12 24.1 96.88     LegendNANA
01:00 Legend Double Dagger 10.1 3.4 63 19 15 24.1 96.97     Rain Showers
02:00 Legend Double Dagger 9.3 3.3 66 19 9 24.1 97.03     LegendNANA
03:00 Legend Double Dagger 9.2 2.8 64 20 15 24.1 97.06     LegendNANA
04:00 Legend Double Dagger 8.7 2.3 64 19 12 24.1 97.10     Mainly Clear
05:00 Legend Double Dagger 8.8 2.2 63 16 15 24.1 97.16     LegendNANA
06:00 Legend Double Dagger 8.3 1.9 64 17 18 24.1 97.20     LegendNANA
07:00 Legend Double Dagger 8.4 3.1 69 16 17 24.1 97.27     Mostly Cloudy
08:00 Legend Double Dagger 8.9 2.3 63 15 21 24.1 97.29     LegendNANA
09:00 Legend Double Dagger 9.1 2.0 61 16 20 24.1 97.32     LegendNANA
10:00 Legend Double Dagger 11.0 3.1 58 14 17 24.1 97.29     Mostly Cloudy
11:00 Legend Double Dagger 11.4 2.7 55 16 23 24.1 97.28     LegendNANA
12:00 Legend Double Dagger 11.8 2.8 54 16 20 24.1 97.29     LegendNANA
13:00 Legend Double Dagger 13.7 2.1 45 18 25 24.1 97.26     Mostly Cloudy
14:00 Legend Double Dagger 12.7 2.0 48 16 22 24.1 97.26     LegendNANA
15:00 Legend Double Dagger 13.1 3.3 51 18 18 24.1 97.30     LegendNANA
16:00 Legend Double Dagger 12.4 1.2 46 20 10 19.3 97.37     Mostly Cloudy
17:00 Legend Double Dagger 9.5 4.1 69 32 9 19.3 97.53     Rain Showers
18:00 Legend Double Dagger 7.4 5.1 85 31 16 24.1 97.61     LegendNANA
19:00 Legend Double Dagger 6.2 4.5 89 2 11 24.1 97.66     Mostly Cloudy
20:00 Legend Double Dagger 6.2 4.7 90 35 14 24.1 97.71     LegendNANA
21:00 Legend Double Dagger 6.2 4.7 90 35 10 24.1 97.74     LegendNANA
22:00 Legend Double Dagger 5.2 3.9 91 29 5 24.1 97.76     Cloudy
23:00 Legend Double Dagger 5.8 4.0 88 34 4 24.1 97.80     LegendNANA

Notes on Data Quality.

Legend

  • E = Estimated
  • M = Missing
  • NA = Not Available
  • ‡ = Partner data that is not subject to review by the National Climate Archives
Date modified: